ASA73 PAJN-PANC

Flight info

Callsign ASA73
Flight time 0h 58m
Altitude 34000
Route CHLKT2 ALATY JOH PTERS3
Aircraft B737/M-SDE2E3FGHIRWXY/LB1

Departure

Time 2026-04-20 17:47
Airport Juneau International Airport (PAJN)

Arrival

Time 2026-04-20 18:45
Airport Ted Stevens Anchorage International Airport (PANC)
Time Latitude Longitude Altitude Speed Heading
2026-04-20 17:27 58.35834 -134.58368 33 ft 0 kts 22°
2026-04-20 17:39 58.35821 -134.58379 32 ft 4 kts 26°
2026-04-20 17:39 58.35798 -134.58405 33 ft 4 kts 40°
2026-04-20 17:39 58.35781 -134.58439 31 ft 2 kts 55°
2026-04-20 17:39 58.35780 -134.58441 31 ft 0 kts 55°
2026-04-20 17:41 58.35782 -134.58435 30 ft 1 kts 65°
2026-04-20 17:42 58.35775 -134.58371 31 ft 9 kts 107°
2026-04-20 17:42 58.35711 -134.58285 32 ft 15 kts 142°
2026-04-20 17:42 58.35670 -134.58057 33 ft 22 kts 104°
2026-04-20 17:42 58.35629 -134.57763 32 ft 23 kts 104°
2026-04-20 17:43 58.35583 -134.57475 33 ft 22 kts 107°
2026-04-20 17:43 58.35547 -134.57191 32 ft 22 kts 102°
2026-04-20 17:43 58.35509 -134.56917 33 ft 21 kts 106°
2026-04-20 17:43 58.35469 -134.56652 32 ft 21 kts 106°
2026-04-20 17:44 58.35436 -134.56396 33 ft 20 kts 98°
2026-04-20 17:44 58.35414 -134.56141 32 ft 19 kts 128°
2026-04-20 17:44 58.35373 -134.55907 33 ft 19 kts 105°
2026-04-20 17:44 58.35336 -134.55676 33 ft 18 kts 106°
2026-04-20 17:45 58.35304 -134.55446 33 ft 17 kts 99°
2026-04-20 17:45 58.35265 -134.55291 33 ft 9 kts 145°
2026-04-20 17:45 58.35207 -134.55252 33 ft 9 kts 170°
2026-04-20 17:45 58.35167 -134.55270 33 ft 3 kts 245°
2026-04-20 17:46 58.35169 -134.55286 33 ft 0 kts 284°
2026-04-20 17:46 58.35191 -134.55450 31 ft 47 kts 285°
2026-04-20 17:46 58.35341 -134.56543 33 ft 121 kts 284°
2026-04-20 17:46 58.35611 -134.58431 206 ft 167 kts 285°
2026-04-20 17:47 58.35988 -134.60604 994 ft 177 kts 287°
2026-04-20 17:47 58.36247 -134.62959 1682 ft 191 kts 267°
2026-04-20 17:47 58.36192 -134.65595 2230 ft 210 kts 263°
2026-04-20 17:47 58.36114 -134.68599 2605 ft 241 kts 265°
2026-04-20 17:48 58.36147 -134.71776 3573 ft 243 kts 281°
2026-04-20 17:48 58.36697 -134.74841 4751 ft 240 kts 288°
2026-04-20 17:48 58.37280 -134.77807 5777 ft 240 kts 288°
2026-04-20 17:48 58.37852 -134.80776 6673 ft 243 kts 288°
2026-04-20 17:49 58.38427 -134.83817 7577 ft 245 kts 288°
2026-04-20 17:49 58.39000 -134.86893 8532 ft 247 kts 287°
2026-04-20 17:49 58.39571 -134.89995 9497 ft 249 kts 287°
2026-04-20 17:49 58.40143 -134.93122 10359 ft 253 kts 287°
2026-04-20 17:50 58.40748 -134.96456 10654 ft 280 kts 287°
2026-04-20 17:50 58.41411 -135.00129 10880 ft 306 kts 287°
2026-04-20 17:50 58.42121 -135.04073 11361 ft 320 kts 287°
2026-04-20 17:50 58.42848 -135.08117 12207 ft 323 kts 287°
2026-04-20 17:51 58.43725 -135.12081 13106 ft 327 kts 296°
2026-04-20 17:51 58.44925 -135.15788 14094 ft 328 kts 299°
2026-04-20 17:51 58.46179 -135.19440 14994 ft 331 kts 299°
2026-04-20 17:51 58.47452 -135.23129 15799 ft 334 kts 299°
2026-04-20 17:52 58.48733 -135.26862 16560 ft 336 kts 299°
2026-04-20 17:52 58.50008 -135.30612 17385 ft 337 kts 298°
2026-04-20 17:52 58.51290 -135.34414 18120 ft 343 kts 298°
2026-04-20 17:52 58.52587 -135.38287 18830 ft 346 kts 297°
2026-04-20 17:53 58.53885 -135.42179 19600 ft 348 kts 297°
2026-04-20 17:53 58.55191 -135.46110 20301 ft 352 kts 297°
2026-04-20 17:53 58.56509 -135.50085 20957 ft 355 kts 297°
2026-04-20 17:53 58.57840 -135.54108 21638 ft 360 kts 296°
2026-04-20 17:54 58.59182 -135.58175 22310 ft 362 kts 296°
2026-04-20 17:54 58.60535 -135.62278 22889 ft 365 kts 296°
2026-04-20 17:54 58.61876 -135.66357 23545 ft 370 kts 296°
2026-04-20 17:54 58.63256 -135.70561 24050 ft 374 kts 296°
2026-04-20 17:55 58.64647 -135.74805 24475 ft 378 kts 296°
2026-04-20 17:55 58.67376 -135.83146 25406 ft 383 kts 297°
2026-04-20 17:55 58.70233 -135.91919 26291 ft 390 kts 296°
2026-04-20 17:55 58.73130 -136.00843 27194 ft 396 kts 296°
2026-04-20 17:56 58.76069 -136.09931 27949 ft 402 kts 296°
2026-04-20 17:56 58.79046 -136.19169 28593 ft 411 kts 297°
2026-04-20 17:56 58.82067 -136.28585 29603 ft 411 kts 297°
2026-04-20 17:56 58.85063 -136.37959 30545 ft 410 kts 296°
2026-04-20 17:57 58.88062 -136.47387 31411 ft 410 kts 296°
2026-04-20 17:57 58.91013 -136.56691 32367 ft 407 kts 296°
2026-04-20 17:57 58.93944 -136.65983 33054 ft 408 kts 296°
2026-04-20 17:57 58.96908 -136.75417 33518 ft 413 kts 296°
2026-04-20 17:58 58.99895 -136.84959 34006 ft 416 kts 296°
2026-04-20 17:58 59.05952 -137.04420 33955 ft 421 kts 296°
2026-04-20 17:59 59.11872 -137.23581 33935 ft 406 kts 296°
2026-04-20 17:59 59.17622 -137.42379 33961 ft 404 kts 296°
2026-04-20 18:00 59.23412 -137.61461 33983 ft 414 kts 296°
2026-04-20 18:00 59.29317 -137.81067 33976 ft 419 kts 296°
2026-04-20 18:01 59.35111 -138.00458 33965 ft 404 kts 296°
2026-04-20 18:01 59.40712 -138.19380 33985 ft 402 kts 296°
2026-04-20 18:01 59.43127 -138.29279 34014 ft 403 kts 285°
2026-04-20 18:02 59.44803 -138.39884 34001 ft 408 kts 284°
2026-04-20 18:02 59.48129 -138.61327 33965 ft 409 kts 284°
2026-04-20 18:03 59.50932 -138.79004 33963 ft 402 kts 284°
2026-04-20 18:03 59.54230 -138.99950 33981 ft 400 kts 284°
2026-04-20 18:04 59.57544 -139.21281 33985 ft 413 kts 284°
2026-04-20 18:04 59.60896 -139.43099 33965 ft 415 kts 284°
2026-04-20 18:05 59.65766 -139.75314 33947 ft 405 kts 283°
2026-04-20 18:05 59.68938 -139.96642 33955 ft 402 kts 283°
2026-04-20 18:06 59.72062 -140.17924 33948 ft 401 kts 283°
2026-04-20 18:06 59.75147 -140.39210 33961 ft 402 kts 283°
2026-04-20 18:07 59.78204 -140.60586 33954 ft 403 kts 283°
2026-04-20 18:07 59.81217 -140.81930 33956 ft 404 kts 283°
2026-04-20 18:08 59.84226 -141.03535 33954 ft 406 kts 283°
2026-04-20 18:08 59.87214 -141.25280 33949 ft 407 kts 282°
2026-04-20 18:09 59.90170 -141.47094 33927 ft 408 kts 282°
2026-04-20 18:09 59.93078 -141.68857 33950 ft 409 kts 282°
2026-04-20 18:10 59.95971 -141.90814 33949 ft 409 kts 282°
2026-04-20 18:10 59.98833 -142.12861 33948 ft 409 kts 282°
2026-04-20 18:11 60.01655 -142.34915 33955 ft 410 kts 282°
2026-04-20 18:11 60.04426 -142.56901 33939 ft 410 kts 282°
2026-04-20 18:12 60.07179 -142.79068 33942 ft 410 kts 281°
2026-04-20 18:12 60.09899 -143.01304 33947 ft 411 kts 281°
2026-04-20 18:13 60.12588 -143.23634 33933 ft 411 kts 281°
2026-04-20 18:13 60.15240 -143.46003 33929 ft 411 kts 281°
2026-04-20 18:14 60.17842 -143.68298 33928 ft 412 kts 281°
2026-04-20 18:14 60.20421 -143.90757 33929 ft 412 kts 280°
2026-04-20 18:15 60.22961 -144.13249 33926 ft 412 kts 280°
2026-04-20 18:15 60.25451 -144.35662 33940 ft 412 kts 280°
2026-04-20 18:16 60.27916 -144.58227 33932 ft 413 kts 280°
2026-04-20 18:16 60.30355 -144.80945 33917 ft 414 kts 279°
2026-04-20 18:17 60.32754 -145.03683 33937 ft 413 kts 279°
2026-04-20 18:17 60.35098 -145.26306 33923 ft 413 kts 279°
2026-04-20 18:18 60.37419 -145.49105 33933 ft 414 kts 279°
2026-04-20 18:18 60.39692 -145.71844 33917 ft 415 kts 279°
2026-04-20 18:19 60.41945 -145.94808 33918 ft 415 kts 279°
2026-04-20 18:19 60.44146 -146.17683 33918 ft 415 kts 279°
2026-04-20 18:20 60.46321 -146.40711 33903 ft 415 kts 279°
2026-04-20 18:20 60.49250 -146.63313 33897 ft 424 kts 300°
2026-04-20 18:21 60.56416 -146.82555 33894 ft 427 kts 303°
2026-04-20 18:21 60.62352 -146.98765 33898 ft 426 kts 302°
2026-04-20 18:22 60.69356 -147.18406 33907 ft 428 kts 302°
2026-04-20 18:22 60.76299 -147.38280 33899 ft 429 kts 302°
2026-04-20 18:23 60.83177 -147.58087 33914 ft 430 kts 302°
2026-04-20 18:23 60.90150 -147.78338 33589 ft 434 kts 302°
2026-04-20 18:24 60.92118 -147.84088 32621 ft 435 kts 302°
2026-04-20 18:24 60.93855 -147.89173 31754 ft 433 kts 302°
2026-04-20 18:24 60.95586 -147.94248 30862 ft 432 kts 301°
2026-04-20 18:24 60.97310 -147.99317 29924 ft 432 kts 301°
2026-04-20 18:25 60.99019 -148.04350 29129 ft 424 kts 301°
2026-04-20 18:25 61.00689 -148.09274 28418 ft 416 kts 301°
2026-04-20 18:25 61.02328 -148.14121 27731 ft 408 kts 301°
2026-04-20 18:25 61.03935 -148.18886 27057 ft 401 kts 301°
2026-04-20 18:26 61.05511 -148.23571 26422 ft 393 kts 301°
2026-04-20 18:26 61.07060 -148.28186 25753 ft 388 kts 301°
2026-04-20 18:26 61.08586 -148.32741 25090 ft 383 kts 301°
2026-04-20 18:26 61.10090 -148.37237 24456 ft 378 kts 301°
2026-04-20 18:27 61.11572 -148.41676 23845 ft 373 kts 300°
2026-04-20 18:27 61.13037 -148.46072 23180 ft 370 kts 300°
2026-04-20 18:27 61.14366 -148.50573 22431 ft 362 kts 290°
2026-04-20 18:27 61.15239 -148.55387 21838 ft 354 kts 287°
2026-04-20 18:28 61.16054 -148.60163 21239 ft 349 kts 287°
2026-04-20 18:28 61.16860 -148.64892 20627 ft 346 kts 287°
2026-04-20 18:28 61.17664 -148.69577 19979 ft 344 kts 287°
2026-04-20 18:28 61.18467 -148.74215 19369 ft 341 kts 287°
2026-04-20 18:29 61.19256 -148.78761 18766 ft 337 kts 287°
2026-04-20 18:29 61.20048 -148.83313 18255 ft 333 kts 287°
2026-04-20 18:29 61.20830 -148.87811 17657 ft 330 kts 287°
2026-04-20 18:29 61.21603 -148.92264 17076 ft 325 kts 287°
2026-04-20 18:30 61.22363 -148.96647 16503 ft 321 kts 287°
2026-04-20 18:30 61.23112 -149.00984 15919 ft 318 kts 287°
2026-04-20 18:30 61.23852 -149.05274 15337 ft 316 kts 288°
2026-04-20 18:30 61.24519 -149.09629 14897 ft 315 kts 281°
2026-04-20 18:31 61.24862 -149.14133 14543 ft 318 kts 276°
2026-04-20 18:31 61.25086 -149.18743 14186 ft 321 kts 274°
2026-04-20 18:31 61.25309 -149.23379 13853 ft 324 kts 276°
2026-04-20 18:31 61.25570 -149.28040 13453 ft 324 kts 276°
2026-04-20 18:32 61.25841 -149.32617 13070 ft 323 kts 276°
2026-04-20 18:32 61.26115 -149.37247 12716 ft 321 kts 276°
2026-04-20 18:32 61.26386 -149.41828 12356 ft 318 kts 276°
2026-04-20 18:32 61.26652 -149.46378 12016 ft 316 kts 275°
2026-04-20 18:33 61.26913 -149.50912 11648 ft 316 kts 275°
2026-04-20 18:33 61.27172 -149.55436 11328 ft 315 kts 275°
2026-04-20 18:33 61.27432 -149.59986 10865 ft 319 kts 274°
2026-04-20 18:33 61.27689 -149.64533 10333 ft 314 kts 274°
2026-04-20 18:34 61.27942 -149.68937 9806 ft 301 kts 275°
2026-04-20 18:34 61.28520 -149.73024 9357 ft 292 kts 294°
2026-04-20 18:34 61.29538 -149.76583 8934 ft 281 kts 297°
2026-04-20 18:34 61.30560 -149.79959 8509 ft 271 kts 297°
2026-04-20 18:35 61.31539 -149.83234 8105 ft 263 kts 297°
2026-04-20 18:35 61.32485 -149.86442 7693 ft 257 kts 296°
2026-04-20 18:35 61.33403 -149.89573 7293 ft 251 kts 296°
2026-04-20 18:35 61.34300 -149.92647 6900 ft 246 kts 296°
2026-04-20 18:36 61.35389 -149.95382 6475 ft 252 kts 320°
2026-04-20 18:36 61.36984 -149.96887 6113 ft 252 kts 338°
2026-04-20 18:36 61.38665 -149.97866 5701 ft 249 kts 339°
2026-04-20 18:36 61.40268 -149.99026 5329 ft 239 kts 336°
2026-04-20 18:37 61.41847 -150.00003 4914 ft 235 kts 339°
2026-04-20 18:37 61.43439 -150.00805 4506 ft 236 kts 343°
2026-04-20 18:37 61.45060 -150.01510 4115 ft 240 kts 343°
2026-04-20 18:37 61.46568 -150.02811 3688 ft 231 kts 315°
2026-04-20 18:38 61.47459 -150.05400 3301 ft 213 kts 280°
2026-04-20 18:38 61.47462 -150.08306 3017 ft 190 kts 243°
2026-04-20 18:38 61.46680 -150.10230 2977 ft 170 kts 205°
2026-04-20 18:38 61.45565 -150.10909 2984 ft 168 kts 193°
2026-04-20 18:39 61.44416 -150.11401 2987 ft 169 kts 193°
2026-04-20 18:39 61.43255 -150.11884 2984 ft 171 kts 192°
2026-04-20 18:39 61.42103 -150.12360 2977 ft 171 kts 192°
2026-04-20 18:39 61.40937 -150.12822 2967 ft 170 kts 188°
2026-04-20 18:40 61.39767 -150.12440 2989 ft 173 kts 167°
2026-04-20 18:40 61.38606 -150.11797 2985 ft 173 kts 171°
2026-04-20 18:40 61.37434 -150.11195 2981 ft 174 kts 170°
2026-04-20 18:40 61.36258 -150.10559 2996 ft 175 kts 172°
2026-04-20 18:41 61.35081 -150.09908 2990 ft 175 kts 172°
2026-04-20 18:41 61.33906 -150.09252 2980 ft 174 kts 172°
2026-04-20 18:41 61.32742 -150.08601 2981 ft 173 kts 172°
2026-04-20 18:41 61.31565 -150.07944 2797 ft 176 kts 171°
2026-04-20 18:42 61.30406 -150.07292 2535 ft 165 kts 171°
2026-04-20 18:42 61.29345 -150.06694 2292 ft 150 kts 172°
2026-04-20 18:42 61.28380 -150.06154 2097 ft 137 kts 172°
2026-04-20 18:42 61.27518 -150.05670 1939 ft 119 kts 172°
2026-04-20 18:43 61.26766 -150.05249 1736 ft 107 kts 173°
2026-04-20 18:43 61.26049 -150.04854 1583 ft 108 kts 173°
2026-04-20 18:43 61.25317 -150.04448 1417 ft 112 kts 172°
2026-04-20 18:43 61.24568 -150.04028 1243 ft 111 kts 172°
2026-04-20 18:44 61.23828 -150.03611 1071 ft 110 kts 171°
2026-04-20 18:44 61.23072 -150.03190 903 ft 114 kts 171°
2026-04-20 18:44 61.22301 -150.02758 711 ft 114 kts 170°
2026-04-20 18:44 61.21544 -150.02333 553 ft 113 kts 169°
2026-04-20 18:45 61.20789 -150.01900 401 ft 112 kts 169°
2026-04-20 18:45 61.20062 -150.01489 221 ft 109 kts 168°
2026-04-20 18:45 61.19340 -150.01083 147 ft 88 kts 167°
2026-04-20 18:45 61.18945 -150.00876 139 ft 42 kts 165°
2026-04-20 18:46 61.18711 -150.00733 134 ft 29 kts 154°
2026-04-20 18:46 61.18666 -150.00555 125 ft 11 kts 68°
2026-04-20 18:46 61.18654 -150.00378 125 ft 16 kts 136°
2026-04-20 18:46 61.18536 -150.00291 123 ft 20 kts 167°
2026-04-20 18:47 61.18385 -150.00209 120 ft 24 kts 165°
2026-04-20 18:47 61.18215 -150.00117 115 ft 25 kts 166°
2026-04-20 18:47 61.18054 -150.00027 119 ft 23 kts 164°
2026-04-20 18:47 61.17902 -149.99940 115 ft 22 kts 165°
2026-04-20 18:48 61.17754 -149.99858 115 ft 22 kts 166°
2026-04-20 18:48 61.17631 -149.99781 117 ft 17 kts 169°
2026-04-20 18:48 61.17503 -149.99726 116 ft 21 kts 167°
2026-04-20 18:48 61.17366 -149.99647 118 ft 20 kts 161°
2026-04-20 18:49 61.17288 -149.99541 120 ft 11 kts 94°
2026-04-20 18:49 61.17297 -149.99310 113 ft 22 kts 85°
2026-04-20 18:49 61.17318 -149.99025 109 ft 19 kts 75°
2026-04-20 18:49 61.17326 -149.98755 109 ft 15 kts 93°
2026-04-20 18:50 61.17374 -149.98622 108 ft 12 kts 30°
2026-04-20 18:50 61.17424 -149.98582 108 ft 12 kts 10°
2026-04-20 18:50 61.17493 -149.98552 107 ft 10 kts 46°
2026-04-20 18:50 61.17503 -149.98475 109 ft 4 kts 83°
2026-04-20 18:51 61.17505 -149.98445 109 ft 0 kts 82°